Hourly Data Report for October 17, 2015

All times are specified in Local Standard Time (LST). Add 1 hour to adjust for Daylight Saving Time where and when it is observed.

TORONTO INTL A
ONTARIO

43°40'36.000" N
79°37'50.000" W
173.40 m
6158731
71624
YYZ

Download Data

Hourly Data (October 2015)
Hourly Data Report for October 17, 2015
Temp Definition
°C
Dew Point Temp Definition
°C
Rel Hum Definition
%
Wind Dir Definition
10's deg

Wind Spd Definition
km/h
Visibility Definition
km
Stn Press Definition
kPa
Hmdx Definition


Wind Chill Definition


Weather Definition


TIME
00:00 Legend Double Dagger 3.1 0.0 80 34 20 24.1 99.88     LegendNANA
01:00 Legend Double Dagger 1.7 -0.7 84 34 21 24.1 99.89     Mostly Cloudy
02:00 Legend Double Dagger 1.2 -2.9 74 32 21 24.1 99.93     LegendNANA
03:00 Legend Double Dagger 0.9 -4.0 70 33 20 24.1 99.95     LegendNANA
04:00 Legend Double Dagger 1.1 -3.6 71 33 22 24.1 99.98     Mainly Clear
05:00 Legend Double Dagger 1.4 -2.9 73 31 15 24.1 100.08     LegendNANA
06:00 Legend Double Dagger 1.2 -3.1 73 33 14 24.1 100.13     LegendNANA
07:00 Legend Double Dagger 0.6 -3.5 74 32 14 24.1 100.20     Clear
08:00 Legend Double Dagger 1.7 -3.6 68 36 11 24.1 100.27     LegendNANA
09:00 Legend Double Dagger 2.4 -3.1 67 35 15 24.1 100.31     LegendNANA
10:00 Legend Double Dagger 4.0 -2.2 64 33 14 24.1 100.30     Mainly Clear
11:00 Legend Double Dagger 4.1 -2.8 61 35 11 24.1 100.31     LegendNANA
12:00 Legend Double Dagger 4.9 -2.9 57 2 13 24.1 100.31     LegendNANA
13:00 Legend Double Dagger 1.6 -1.1 82 27 23 9.7 100.32     Rain Showers,Snow Showers
14:00 Legend Double Dagger 4.5 -0.9 68 32 21 24.1 100.28     LegendNANA
15:00 Legend Double Dagger 4.5 -1.5 65 36 21 24.1 100.28     LegendNANA
16:00 Legend Double Dagger 2.9 -2.4 68 35 19 24.1 100.32     Mostly Cloudy
17:00 Legend Double Dagger 3.7 -3.6 59 33 19 24.1 100.32     LegendNANA
18:00 Legend Double Dagger 2.5 -3.2 66 35 17 24.1 100.37     LegendNANA
19:00 Legend Double Dagger 2.5 -3.2 66 34 15 24.1 100.39     Mainly Clear
20:00 Legend Double Dagger 2.4 -3.1 67 29 16 24.1 100.42     LegendNANA
21:00 Legend Double Dagger 1.6 -4.1 66 34 14 24.1 100.46     LegendNANA
22:00 Legend Double Dagger 0.4 -4.6 69 28 8 24.1 100.48     Mainly Clear
23:00 Legend Double Dagger -1.3 -5.5 73 28 16 24.1 100.46   -6 LegendNANA

Notes on Data Quality.

Legend

  • E = Estimated
  • M = Missing
  • NA = Not Available
  • ‡ = Partner data that is not subject to review by the National Climate Archives
Date modified: